Location: Bois Neuf
(42.7667°N, 0.6333°E)
Time: 22:33:52
(UTC+00:00)

Cosmos 1937 Rocket - Pass Details

Date: 30 September 2020
Orbit: 747 x 779 km, 74.0° (Epoch: 26 October)

Event Time Altitude Azimuth Distance (km) Brightness Sun altitude
Rises 17:59:42 0° 240° (WSW) 3,221 7.9 -4.5°
Reaches altitude 10° 18:02:42 10° 258° (WSW) 2,293 7.7 -5.0°
Maximum altitude 18:06:27 20° 304° (NW) 1,718 6.2 -5.7°
Drops below altitude 10° 18:10:11 10° 351° (N) 2,288 6.1 -6.4°
Sets 18:13:12 0° 8° (N) 3,212 6.7 -6.9°
